vendredi 14 septembre 2018

Vous pouvez trouver Le classement original sur : www.otopservices.be  
 
JOUFGING - OUFFET
DISTANCE : 12.66 km
vendredi 14 septembre 2018
 
Place dos NOM Catégorie Pl/cat temps temps/km Vitesse
01:00:00              
1 1253 CEDRIC RAEMACKERS SENIOR H 1 00:48:05 03:48 15.80
2 1263 MARTIN BRAQUET SENIOR H 2 00:48:28 03:50 15.68
3 1266 EDOUARD SPANU SENIOR H 3 00:53:05 04:12 14.31
4 1276 MATHIEU LEMOS CRUZ SENIOR H 4 00:53:11 04:12 14.28
5 1265 JULIEN NUTTIN SENIOR H 5 00:55:40 04:24 13.65
6 1267 THIBAUT THOMASSIN SENIOR H 6 00:56:13 04:26 13.51
7 1270 ANTOINE DUBOIS ESPOIR H 1 00:59:15 04:41 12.82
8 1257 THOMAS COP SENIOR H 7 01:00:38 04:47 12.53
9 1255 JEREMIE DUPONT SENIOR H 8 01:01:18 04:50 12.39
10 1290 GEOFFROY LESCRENIER VETERAN 1 1 01:03:51 05:03 11.90
11 1261 ERIC JOBE VÉTÉRAN 2 1 01:04:57 05:08 11.70
12 1269 PIERRE DUCHATELET VETERAN 1 2 01:05:26 05:10 11.61
13 1285 JEAN-MARC CUCCURU VÉTÉRAN 2 2 01:05:42 05:11 11.56
14 1453 DIDIER DENDAL VÉTÉRAN 2 3 01:05:49 05:12 11.54
15 1264 LAURENT BRAQUET VETERAN 1 3 01:06:00 05:13 11.51
16 1275 MICHEL BERTRAND VETERAN 3 1 01:07:02 05:18 11.33
17 1262 NICOLAS JOSIS SENIOR H 9 01:07:04 05:18 11.33
18 1457 LUCIANO BATTISTINI VETERAN 3 2 01:08:59 05:27 11.01
19 1451 CEDRIC BREHL SENIOR H 10 01:09:10 05:28 10.98
20 1456 LARBI LOUMRHARI VÉTÉRAN 2 4 01:10:27 05:34 10.78
21 1452 MARC DONCEEL VÉTÉRAN 2 5 01:16:43 06:04 9.90
22 1273 FLORINE HENRY SENIOR D 1 01:16:45 06:04 9.90
23 1278 GONTRAN KERSTEN SENIOR H 11 01:17:01 06:05 9.86
24 1279 NICOLAS HAOT SENIOR H 12 01:17:02 06:05 9.86
25 1280 NICOLAS MIGNOLET SENIOR H 13 01:17:02 06:05 9.86
26 1283 SEBASTIEN WERY SENIOR H 14 01:17:03 06:05 9.86
27 1287 MARC D'JOOS VETERAN 3 3 01:17:38 06:08 9.79
28 1286 MAXIME WILKIN SENIOR H 15 01:18:20 06:11 9.70
29 1289 CHRISTELLE PAIRON SENIOR D 2 01:18:28 06:12 9.68
30 1256 ANTONIN WAUTELET SENIOR H 16 01:19:01 06:14 9.61
31 1268 VINCENT AUBERT VÉTÉRAN 2 6 01:19:50 06:18 9.52
32 1258 ALEXANDRE GRANDCHAMPS VETERAN 3 4 01:20:35 06:22 9.43
33 1260 CEDRIC DEBOTZ SENIOR H 17 01:20:52 06:23 9.39
34 1282 VALENTIN MARTEAU SENIOR H 18 01:21:55 06:28 9.27
35 1454 PIERRE DARMONT VETERAN 1 4 01:22:53 06:33 9.17
36 1271 NATHALIE JAA AINÉE 1 1 01:23:14 06:34 9.13
37 1277 AGNES DEMOITIE AINÉE 2 1 01:25:01 06:43 8.94
38 1288 ARNAUD SARTELET SENIOR H 19 01:25:06 06:43 8.93
39 1251 ANGEL CROISIER ESPOIR H 2 01:26:03 06:48 8.83
40 1274 THIBAUT HALLEUX VETERAN 1 5 01:26:07 06:48 8.82
41 1455 CHRISTINE DEWITTE AINÉE 1 2 01:33:42 07:24 8.11